Back to catalog

STARLINK-36960

AliveCommunicationsSSO
NORAD 68225·PAYLOAD·🇺🇸 United States

Launched Mar 17, 2026 from Vandenberg Space Force Base

Loading…

Next Passes (next 24 hours)

TLE

FreshSource: CelesTrak SupGP

Epoch: Sep 14, 2026, 22:29 UTC

1 68225C 26053U   26257.93729167  .00046659  00000+0  14488-2 0  2578
2 68225  97.2849 131.8295 0001992  92.9484 251.8208 15.33405667    17

Track STARLINK-36960 in real time with AllMySat

Download on the App Store